Regional Weather Roundup
Issued by NWS

Home | Current Version | Previous Version | Graphics & Text | Print | Product List | Glossary On
Versions: 1 2 3 4 5 6 7 8 9 10 11 12 13 14 15 16 17 18 19 20 21 22 23 24 25 26 27 28 29 30 31 32 33 34 35 36 37 38 39 40 41 42 43 44 45 46 47 48 49 50
849
ASUS43 KOAX 221102
RWRNE

WEATHER ROUNDUP FOR NEBRASKA
NATIONAL WEATHER SERVICE OMAHA NE
600 AM CDT FRI MAY 22 2015

NOTES: SATELLITE DATA IS BEING USED TO AUGMENT CLOUD COVER ABOVE
       12000 FEET.
       "FAIR" INDICATES FEW OR NO CLOUDS BELOW 12,000 FEET WITH NO
       SIGNIFICANT WEATHER AND/OR OBSTRUCTIONS TO VISIBILITY.

  * THESE STATIONS DO NOT REPORT WEATHER SUCH AS RAIN...SNOW OR FOG.

NEZ001>004-019>022-054>056-221200-
NEBRASKA PANHANDLE

CITY           SKY/WX    TMP DP  RH WIND       PRES   REMARKS
SCOTTSBLUFF    CLOUDY    49  45  86 MISG      30.06F
ALLIANCE       CLOUDY    49  44  83 SE12      30.08F
CHADRON        CLOUDY    51  43  74 SE12      30.08F
KIMBALL          N/A    N/A N/A N/A MISG        N/A
SIDNEY         CLOUDY    47  43  86 SE9       30.08F
$$

NEZ057>060-069>072-079>082-221200-
SOUTHWEST NEBRASKA

CITY           SKY/WX    TMP DP  RH WIND       PRES   REMARKS
NORTH PLATTE   CLOUDY    43  40  89 E8        30.14F
IMPERIAL       CLOUDY    48  43  82 SE10      30.11F
LEXINGTON      CLOUDY    45  42  90 E5        30.17S
MCCOOK         CLOUDY    48  44  86 SE5       30.14F
OGALLALA       CLOUDY    47  44  91 E7        30.11F
$$

NEZ005>010-023>029-035>040-094-221200-
NORTH CENTRAL NEBRASKA

CITY           SKY/WX    TMP DP  RH WIND       PRES   REMARKS
VALENTINE      PTCLDY    44  39  82 CALM      30.15F
AINSWORTH      PTCLDY    40  37  89 S5        30.17S
BROKEN BOW     CLOUDY    42  39  89 CALM      30.17S
O`NEILL        CLEAR     43  36  78 S3        30.19S
ORD            MOCLDY    37  34  89 CALM      30.17F
$$

NEZ041-046>049-061>064-073>077-083>087-221200-
SOUTH CENTRAL NEBRASKA

CITY           SKY/WX    TMP DP  RH WIND       PRES   REMARKS
GRAND ISLAND   MOCLDY    45  40  82 S3        30.19F
AURORA         MOCLDY    45  41  86 CALM      30.19F
HASTINGS       MOCLDY    46  40  79 CALM      30.18F
HEBRON         CLOUDY    45  42  90 CALM      30.19F
HOLDREGE       CLOUDY    45  41  86 SE5       30.17F
KEARNEY *      MOCLDY    45  39  81 CALM      30.18F
$$

NEZ011>018-030>034-042>045-221200-
NORTHEAST NEBRASKA

CITY           SKY/WX    TMP DP  RH WIND       PRES   REMARKS
NORFOLK        PTCLDY    40  36  86 CALM      30.20R
ALBION         PTCLDY    40  36  83 CALM      30.20S
BLAIR          PTCLDY    50  39  67 CALM      30.20S
COLUMBUS *     MOCLDY    43  36  75 CALM      30.23F
FREMONT        PTCLDY    44  41  87 CALM      30.21R
TEKAMAH        CLEAR     46  39  76 SW5       30.21R
WAYNE          CLEAR     40  36  85 CALM      30.21S
$$

NEZ050>053-065>068-078-088>093-221200-
SOUTHEAST NEBRASKA

CITY           SKY/WX    TMP DP  RH WIND       PRES   REMARKS
LINCOLN        MOCLDY    47  42  83 CALM      30.22S
OMAHA EPPLEY   MOCLDY    49  43  80 NW3       30.21R
BEATRICE       MOCLDY    45  42  91 CALM      30.21F
FALLS CITY     MOCLDY    46  43  89 CALM      30.21S
NEBRASKA CITY  PTCLDY    48  39  72 W3        30.22S
PLATTSMOUTH    PTCLDY    50  39  67 W5        30.22R
$$

NEZ044-045-051>053-067-221200-
OMAHA AREA

CITY           SKY/WX    TMP DP  RH WIND       PRES   REMARKS
OMAHA EPPLEY   MOCLDY    49  43  80 NW3       30.21R
BLAIR          PTCLDY    50  39  67 CALM      30.20S
FREMONT        PTCLDY    44  41  87 CALM      30.21R
MILLARD        PTCLDY    46  44  92 CALM      30.21R
OFFUTT AFB     PTCLDY    44  42  91 CALM      30.20R
PLATTSMOUTH    PTCLDY    50  39  67 W5        30.22R
WAHOO          FAIR      47  41  79 CALM      30.21S
$$



USA.gov is the U.S. government's official web portal to all federal, state and local government web resources and services.